contact:dominique.lefevre@mio.osupytheas.fr, maurice.libes@osupytheas.fr, didier.mallarino@osupytheas.fr
Project:EMSO http://www.emso-fr.org/EMSO-France
Depth: 2436.0 m
Title:EMSO Ligure Ouest : Data MII capteur AQUADOPP
Date,Latitude,Longitude,X_East,Y_North,Z_Up,Amplitude_X,Amplitude_Y,Amplitude_Z,Batterie,SoundSpeed,Heading,Pitch,Roll,Pressure,TIS,Speed,Direction
, degrees North, degrees East, m.s-1, m.s-1,m.s-1, 1, 1, 1, Volt, m.s-1, degree, degree, degree, dbar, degree_C, m.s-1, degree
2022-04-20T00:04:03,42.805,6.029,-0.045,0.014,-0.008,102.0,102.0,102.0,13.4,1505.2,326.2,-0.8,1.8,2470.567,13.28,0.047,287.3
2022-04-20T00:07:03,42.805,6.029,-0.054,0.006,-0.01,103.0,102.0,101.0,13.4,1505.2,325.3,-0.8,1.8,2470.614,13.28,0.054,276.3
2022-04-20T00:10:03,42.805,6.029,-0.046,0.053,0.005,102.0,102.0,101.0,13.3,1505.2,333.2,-0.7,1.8,2470.552,13.28,0.07,319.0
2022-04-20T00:13:03,42.805,6.029,-0.085,0.026,0.001,103.0,102.0,101.0,13.4,1505.2,322.5,-0.8,1.8,2470.644,13.28,0.088,287.0
2022-04-20T00:16:03,42.805,6.029,-0.056,0.011,0.013,103.0,104.0,102.0,13.4,1505.2,327.7,-0.8,1.8,2470.779,13.28,0.057,281.1
2022-04-20T00:19:03,42.805,6.029,-0.048,0.01,0.016,104.0,103.0,102.0,13.3,1505.2,322.8,-0.8,1.8,2470.824,13.28,0.049,281.8
2022-04-20T00:22:03,42.805,6.029,-0.047,0.017,-0.027,101.0,103.0,102.0,13.4,1505.2,328.4,-0.8,1.8,2470.809,13.28,0.049,289.9
2022-04-20T00:25:03,42.805,6.029,-0.043,-0.01,-0.015,105.0,103.0,102.0,13.3,1505.2,332.3,-0.8,1.8,2470.747,13.28,0.044,256.9
2022-04-20T00:28:03,42.805,6.029,-0.054,0.011,-0.029,103.0,102.0,102.0,13.4,1505.2,322.6,-0.8,1.8,2470.688,13.28,0.055,281.5
2022-04-20T00:31:03,42.805,6.029,-0.059,0.031,-0.007,104.0,101.0,102.0,13.3,1505.2,329.4,-0.8,1.8,2470.652,13.28,0.066,297.7
2022-04-20T00:34:03,42.805,6.029,-0.05,-0.003,-0.005,103.0,102.0,101.0,13.4,1505.2,325.4,-0.7,1.8,2470.615,13.28,0.05,266.6
2022-04-20T00:37:03,42.805,6.029,-0.054,0.006,-0.019,103.0,102.0,102.0,13.4,1505.2,329.1,-0.8,1.8,2470.543,13.28,0.054,276.3
2022-04-20T00:40:03,42.805,6.029,-0.072,0.012,-0.033,103.0,102.0,102.0,13.3,1505.2,331.7,-0.8,1.8,2470.531,13.28,0.072,279.5
2022-04-20T00:43:03,42.805,6.029,-0.079,0.031,-0.025,102.0,103.0,101.0,13.4,1505.2,327.7,-0.7,1.8,2470.533,13.28,0.084,291.4
2022-04-20T00:46:03,42.805,6.029,-0.075,0.013,-0.029,103.0,103.0,102.0,13.4,1505.2,333.2,-0.7,1.8,2470.695,13.28,0.076,279.8
2022-04-20T00:49:03,42.805,6.029,-0.079,0.035,0.008,103.0,101.0,102.0,13.4,1505.2,325.1,-0.8,1.8,2470.873,13.28,0.086,293.9
2022-04-20T00:52:03,42.805,6.029,-0.043,-0.012,-0.042,104.0,105.0,102.0,13.3,1505.2,321.8,-0.7,1.8,2471.08,13.28,0.044,254.4
2022-04-20T00:55:03,42.805,6.029,-0.057,0.005,-0.02,102.0,102.0,103.0,13.3,1505.2,328.0,-0.8,1.8,2471.149,13.28,0.057,275.0
2022-04-20T00:58:03,42.805,6.029,-0.051,-0.02,-0.037,104.0,103.0,101.0,13.4,1505.2,329.9,-0.8,1.8,2471.151,13.28,0.054,248.6
2022-04-20T01:04:03,42.805,6.029,-0.012,0.02,-0.016,108.0,106.0,105.0,13.4,1505.2,327.9,-0.7,1.8,2471.17,13.28,0.023,329.0
2022-04-20T01:07:04,42.805,6.029,-0.045,0.028,-0.006,104.0,103.0,102.0,13.3,1505.2,333.0,-0.8,1.8,2471.231,13.28,0.053,301.9
2022-04-20T01:10:03,42.805,6.029,-0.037,0.033,0.007,102.0,104.0,101.0,13.3,1505.2,329.8,-0.7,1.8,2471.239,13.28,0.049,311.7
2022-04-20T01:13:03,42.805,6.029,-0.071,0.03,-0.025,103.0,102.0,102.0,13.4,1505.2,332.6,-0.8,1.9,2471.201,13.28,0.077,292.9
2022-04-20T01:16:03,42.805,6.029,-0.058,0.021,-0.022,104.0,101.0,100.0,13.3,1505.2,326.9,-0.8,1.8,2471.102,13.28,0.061,289.9
2022-04-20T01:19:03,42.805,6.029,-0.057,0.017,-0.009,104.0,102.0,101.0,13.3,1505.2,329.2,-0.8,1.8,2470.98,13.28,0.059,286.6
2022-04-20T01:22:03,42.805,6.029,-0.038,0.029,0.003,102.0,104.0,101.0,13.3,1505.2,326.5,-0.7,1.8,2470.902,13.28,0.047,307.3
2022-04-20T01:25:03,42.805,6.029,-0.042,0.024,-0.006,103.0,102.0,102.0,13.4,1505.2,331.0,-0.7,1.8,2470.831,13.28,0.048,299.7
2022-04-20T01:28:03,42.805,6.029,-0.064,0.046,0.007,104.0,102.0,102.0,13.4,1505.2,333.4,-0.8,1.8,2470.745,13.28,0.078,305.7
2022-04-20T01:31:03,42.805,6.029,-0.051,0.009,-0.019,103.0,102.0,103.0,13.4,1505.2,324.9,-0.7,1.8,2470.65,13.28,0.051,280.0
2022-04-20T01:34:03,42.805,6.029,-0.059,0.015,0.011,105.0,103.0,101.0,13.4,1505.2,324.2,-0.8,1.8,2470.475,13.28,0.06,284.3
2022-04-20T01:37:03,42.805,6.029,-0.045,0.002,-0.027,103.0,102.0,103.0,13.4,1505.2,327.0,-0.7,1.9,2470.492,13.29,0.045,272.5
2022-04-20T01:40:03,42.805,6.029,-0.022,0.024,-0.018,104.0,103.0,103.0,13.3,1505.2,332.3,-0.8,1.8,2470.547,13.28,0.032,317.5
2022-04-20T01:43:03,42.805,6.029,-0.052,0.008,0.003,104.0,103.0,101.0,13.4,1505.2,324.8,-0.7,1.8,2470.534,13.28,0.052,278.7
2022-04-20T01:46:03,42.805,6.029,-0.054,0.024,0.027,104.0,103.0,102.0,13.4,1505.2,322.9,-0.8,1.8,2470.598,13.28,0.059,294.0
2022-04-20T01:49:03,42.805,6.029,-0.04,0.013,0.011,105.0,104.0,101.0,13.3,1505.2,330.0,-0.7,1.8,2470.628,13.28,0.042,288.0
2022-04-20T01:52:03,42.805,6.029,-0.051,0.02,0.006,104.0,103.0,103.0,13.3,1505.2,325.3,-0.8,1.8,2470.752,13.28,0.054,291.4
2022-04-20T01:55:03,42.805,6.029,-0.04,-0.003,-0.029,105.0,102.0,101.0,13.4,1505.2,325.5,-0.7,1.8,2470.766,13.28,0.04,265.7
2022-04-20T01:58:03,42.805,6.029,-0.029,0.019,0.008,104.0,104.0,101.0,13.3,1505.2,328.3,-0.8,1.8,2470.749,13.28,0.034,303.2
2022-04-20T02:04:03,42.805,6.029,-0.046,0.001,0.005,103.0,103.0,103.0,13.4,1505.2,322.5,-0.8,1.8,2470.8,13.28,0.046,271.2
2022-04-20T02:07:03,42.805,6.029,-0.059,-0.001,-0.007,104.0,103.0,103.0,13.4,1505.2,327.2,-0.8,1.8,2470.923,13.28,0.059,269.0
2022-04-20T02:10:03,42.805,6.029,-0.031,-0.01,-0.016,103.0,104.0,103.0,13.3,1505.2,326.6,-0.8,1.8,2471.145,13.28,0.032,252.1
2022-04-20T02:13:03,42.805,6.029,-0.032,0.014,0.01,104.0,104.0,101.0,13.4,1505.2,331.9,-0.8,1.8,2471.373,13.28,0.034,293.6
2022-04-20T02:16:03,42.805,6.029,-0.039,0.019,-0.026,104.0,105.0,101.0,13.4,1505.2,331.7,-0.7,1.8,2471.549,13.28,0.043,296.0
2022-04-20T02:19:03,42.805,6.029,-0.052,0.016,-0.008,105.0,103.0,102.0,13.3,1505.2,325.4,-0.8,1.8,2471.5,13.28,0.054,287.1
2022-04-20T02:22:03,42.805,6.029,-0.05,0.015,-0.001,104.0,104.0,102.0,13.4,1505.2,326.3,-0.8,1.8,2471.596,13.28,0.052,286.7
2022-04-20T02:25:03,42.805,6.029,-0.074,0.022,0.018,102.0,104.0,102.0,13.4,1505.2,323.8,-0.7,1.8,2471.661,13.28,0.077,286.6
2022-04-20T02:28:03,42.805,6.029,-0.056,0.006,0.01,105.0,103.0,100.0,13.4,1505.2,325.4,-0.7,1.8,2471.58,13.28,0.056,276.1
2022-04-20T02:31:03,42.805,6.029,-0.056,0.014,-0.015,104.0,104.0,102.0,13.4,1505.2,322.4,-0.7,1.9,2471.539,13.28,0.057,284.0
2022-04-20T02:34:03,42.805,6.029,-0.054,0.01,0.003,105.0,103.0,102.0,13.4,1505.2,328.6,-0.8,1.8,2471.445,13.28,0.054,280.5
2022-04-20T02:37:03,42.805,6.029,-0.053,0.015,-0.03,105.0,104.0,101.0,13.3,1505.2,328.9,-0.8,1.8,2471.657,13.28,0.055,285.8
2022-04-20T02:40:03,42.805,6.029,-0.046,0.006,-0.023,103.0,104.0,102.0,13.3,1505.2,326.0,-0.8,1.8,2471.497,13.28,0.046,277.4
2022-04-20T02:43:03,42.805,6.029,-0.031,0.015,0.0,104.0,104.0,101.0,13.4,1505.2,331.1,-0.8,1.8,2471.491,13.28,0.034,295.8
2022-04-20T02:46:03,42.805,6.029,-0.067,0.016,0.022,103.0,105.0,104.0,13.4,1505.2,322.3,-0.8,1.8,2471.619,13.28,0.068,283.4
2022-04-20T02:49:03,42.805,6.029,-0.047,0.026,-0.019,103.0,106.0,103.0,13.4,1505.2,328.6,-0.7,1.8,2471.688,13.28,0.053,298.9
2022-04-20T02:52:03,42.805,6.029,-0.048,0.02,-0.011,103.0,104.0,102.0,13.4,1505.2,328.2,-0.8,1.8,2471.646,13.28,0.052,292.6
2022-04-20T02:55:03,42.805,6.029,-0.062,0.003,0.0,103.0,103.0,103.0,13.3,1505.2,325.9,-0.7,1.8,2471.607,13.28,0.062,272.8
2022-04-20T02:58:03,42.805,6.029,-0.049,0.008,-0.026,103.0,104.0,101.0,13.3,1505.2,324.9,-0.8,1.8,2471.531,13.29,0.049,279.3
2022-04-20T03:04:03,42.805,6.029,-0.054,0.006,-0.004,103.0,103.0,101.0,13.4,1505.2,325.1,-0.8,1.8,2471.416,13.28,0.054,276.3
2022-04-20T03:07:03,42.805,6.029,-0.057,-0.003,-0.008,103.0,102.0,101.0,13.4,1505.2,323.0,-0.8,1.8,2471.297,13.28,0.057,267.0
2022-04-20T03:10:03,42.805,6.029,-0.041,0.023,-0.024,102.0,102.0,101.0,13.4,1505.2,329.1,-0.7,1.8,2471.43,13.28,0.047,299.3
2022-04-20T03:13:03,42.805,6.029,-0.052,0.031,0.0,103.0,102.0,102.0,13.4,1505.2,330.3,-0.7,1.8,2471.441,13.28,0.06,300.8
2022-04-20T03:16:03,42.805,6.029,-0.051,0.017,-0.004,103.0,104.0,101.0,13.3,1505.2,322.5,-0.8,1.8,2471.448,13.28,0.053,288.4
2022-04-20T03:19:03,42.805,6.029,-0.05,-0.003,-0.02,103.0,103.0,102.0,13.3,1505.2,325.6,-0.8,1.8,2471.294,13.28,0.05,266.6
2022-04-20T03:22:03,42.805,6.029,-0.079,0.024,-0.007,103.0,105.0,103.0,13.4,1505.2,324.4,-0.8,1.8,2471.299,13.28,0.082,286.9
2022-04-20T03:25:03,42.805,6.029,-0.062,0.031,-0.054,102.0,104.0,102.0,13.4,1505.2,330.9,-0.8,1.8,2471.218,13.28,0.069,296.6
2022-04-20T03:28:03,42.805,6.029,-0.059,0.01,-0.017,104.0,105.0,103.0,13.3,1505.2,327.1,-0.7,1.8,2471.152,13.28,0.059,279.6
2022-04-20T03:31:03,42.805,6.029,-0.048,0.003,-0.009,104.0,104.0,102.0,13.3,1505.2,327.3,-0.7,1.8,2471.163,13.28,0.048,273.6
2022-04-20T03:34:03,42.805,6.029,-0.048,0.014,-0.011,106.0,103.0,102.0,13.3,1505.2,330.7,-0.8,1.9,2471.226,13.29,0.05,286.3
2022-04-20T03:37:03,42.805,6.029,-0.059,0.014,-0.01,104.0,103.0,102.0,13.4,1505.2,324.3,-0.8,1.8,2471.203,13.28,0.06,283.3
2022-04-20T03:40:03,42.805,6.029,-0.052,0.003,-0.01,104.0,104.0,102.0,13.4,1505.2,326.1,-0.7,1.8,2471.254,13.29,0.052,273.3
2022-04-20T03:43:03,42.805,6.029,-0.044,0.007,-0.014,104.0,103.0,103.0,13.3,1505.2,328.2,-0.7,1.8,2471.311,13.29,0.044,279.0
2022-04-20T03:46:03,42.805,6.029,-0.034,0.019,-0.018,105.0,104.0,103.0,13.4,1505.2,330.5,-0.8,1.8,2471.333,13.29,0.038,299.2
2022-04-20T03:49:03,42.805,6.029,-0.058,0.02,-0.033,103.0,103.0,102.0,13.4,1505.2,333.2,-0.8,1.8,2471.297,13.29,0.061,289.0
2022-04-20T03:52:03,42.805,6.029,-0.061,0.01,-0.006,104.0,103.0,103.0,13.4,1505.2,328.8,-0.8,1.8,2471.351,13.28,0.061,279.3
2022-04-20T03:55:03,42.805,6.029,-0.064,0.022,0.013,104.0,107.0,102.0,13.4,1505.2,328.3,-0.8,1.8,2471.526,13.29,0.067,289.0
2022-04-20T03:58:03,42.805,6.029,-0.052,0.011,-0.025,105.0,104.0,102.0,13.4,1505.2,331.1,-0.8,1.8,2471.362,13.28,0.053,281.9
2022-04-20T04:04:03,42.805,6.029,-0.056,0.009,-0.029,106.0,104.0,102.0,13.4,1505.2,325.3,-0.8,1.8,2471.387,13.28,0.056,279.1
2022-04-20T04:07:03,42.805,6.029,-0.043,0.008,-0.02,104.0,104.0,102.0,13.4,1505.2,330.9,-0.8,1.8,2471.52,13.28,0.043,280.5
2022-04-20T04:10:03,42.805,6.029,-0.042,0.007,-0.01,105.0,105.0,102.0,13.4,1505.2,331.9,-0.7,1.8,2471.586,13.28,0.042,279.5
2022-04-20T04:13:03,42.805,6.029,-0.024,0.017,-0.007,106.0,105.0,102.0,13.4,1505.2,328.2,-0.7,1.8,2471.691,13.28,0.029,305.3
2022-04-20T04:16:03,42.805,6.029,-0.044,0.011,-0.01,106.0,105.0,102.0,13.4,1505.2,331.1,-0.8,1.8,2471.786,13.28,0.045,284.0
2022-04-20T04:19:03,42.805,6.029,-0.024,0.001,-0.005,105.0,104.0,103.0,13.3,1505.2,331.7,-0.8,1.8,2471.82,13.28,0.024,272.4
2022-04-20T04:22:03,42.805,6.029,-0.032,0.015,-0.014,104.0,103.0,102.0,13.3,1505.2,325.8,-0.7,1.8,2471.69,13.28,0.035,295.1
2022-04-20T04:25:03,42.805,6.029,-0.053,0.014,-0.003,105.0,102.0,102.0,13.4,1505.2,329.1,-0.8,1.8,2471.688,13.28,0.054,284.8
2022-04-20T04:28:03,42.805,6.029,-0.042,0.014,-0.01,104.0,103.0,102.0,13.3,1505.2,321.1,-0.7,1.9,2471.645,13.29,0.044,288.4
2022-04-20T04:31:03,42.805,6.029,-0.05,0.016,-0.005,104.0,102.0,102.0,13.3,1505.2,329.7,-0.7,1.8,2471.692,13.28,0.052,287.7
2022-04-20T04:34:03,42.805,6.029,-0.043,0.027,0.016,105.0,103.0,101.0,13.4,1505.2,330.3,-0.8,1.8,2471.753,13.29,0.05,302.1
2022-04-20T04:37:03,42.805,6.029,-0.041,0.001,-0.021,104.0,105.0,102.0,13.4,1505.2,328.6,-0.8,1.8,2471.706,13.29,0.041,271.4
2022-04-20T04:40:03,42.805,6.029,-0.027,0.024,-0.011,105.0,104.0,104.0,13.4,1505.2,329.3,-0.7,1.8,2471.711,13.28,0.036,311.6
2022-04-20T04:43:03,42.805,6.029,-0.037,-0.012,0.0,104.0,103.0,102.0,13.4,1505.2,328.2,-0.7,1.8,2471.653,13.28,0.038,252.0
2022-04-20T04:46:03,42.805,6.029,-0.052,0.015,-0.02,105.0,104.0,102.0,13.3,1505.2,329.5,-0.7,1.8,2471.749,13.29,0.054,286.1
2022-04-20T04:49:03,42.805,6.029,-0.044,0.0,-0.005,104.0,107.0,102.0,13.4,1505.2,322.6,-0.7,1.8,2471.716,13.29,0.044,270.0
2022-04-20T04:52:03,42.805,6.029,-0.026,0.012,-0.013,105.0,105.0,102.0,13.3,1505.2,329.4,-0.8,1.8,2471.694,13.29,0.028,294.8
2022-04-20T04:55:03,42.805,6.029,-0.045,0.011,-0.005,104.0,104.0,102.0,13.4,1505.2,326.8,-0.8,1.8,2471.593,13.29,0.046,283.7
2022-04-20T04:58:03,42.805,6.029,-0.021,0.01,0.001,102.0,103.0,102.0,13.4,1505.2,325.6,-0.8,1.8,2471.463,13.29,0.023,295.5
2022-04-20T05:04:03,42.805,6.029,-0.05,0.007,-0.006,104.0,103.0,102.0,13.4,1505.2,323.5,-0.8,1.8,2471.301,13.28,0.05,278.0
2022-04-20T05:07:03,42.805,6.029,-0.045,0.011,-0.013,107.0,104.0,102.0,13.4,1505.2,322.8,-0.7,1.8,2471.222,13.28,0.046,283.7
2022-04-20T05:10:03,42.805,6.029,-0.04,0.003,0.007,105.0,104.0,102.0,13.3,1505.2,329.1,-0.8,1.8,2471.182,13.28,0.04,274.3
2022-04-20T05:13:03,42.805,6.029,-0.048,0.005,-0.051,104.0,106.0,102.0,13.4,1505.2,324.1,-0.8,1.8,2471.167,13.28,0.048,275.9
2022-04-20T05:16:03,42.805,6.029,-0.034,0.002,0.0,104.0,106.0,102.0,13.3,1505.2,330.2,-0.8,1.8,2471.085,13.28,0.034,273.4
2022-04-20T05:19:03,42.805,6.029,-0.052,0.021,-0.014,105.0,103.0,102.0,13.4,1505.2,322.9,-0.8,1.9,2470.953,13.28,0.056,292.0
2022-04-20T05:22:03,42.805,6.029,-0.042,-0.014,-0.028,104.0,103.0,102.0,13.4,1505.2,328.7,-0.7,1.8,2470.884,13.28,0.044,251.6
2022-04-20T05:25:03,42.805,6.029,-0.031,0.019,-0.031,103.0,104.0,103.0,13.3,1505.2,327.5,-0.8,1.8,2470.792,13.28,0.036,301.5
2022-04-20T05:28:03,42.805,6.029,-0.039,0.01,0.008,104.0,103.0,102.0,13.4,1505.2,324.6,-0.8,1.8,2470.894,13.28,0.04,284.4
2022-04-20T05:31:03,42.805,6.029,-0.048,-0.005,-0.016,105.0,105.0,104.0,13.4,1505.2,322.9,-0.7,1.8,2471.033,13.29,0.048,264.1
2022-04-20T05:34:03,42.805,6.029,-0.053,0.007,0.0,102.0,104.0,103.0,13.4,1505.2,328.6,-0.8,1.8,2471.166,13.29,0.053,277.5
2022-04-20T05:37:03,42.805,6.029,-0.036,-0.006,0.0,104.0,104.0,102.0,13.3,1505.2,327.1,-0.8,1.8,2471.163,13.29,0.036,260.5
2022-04-20T05:40:03,42.805,6.029,-0.036,-0.001,-0.037,104.0,105.0,103.0,13.4,1505.2,327.9,-0.8,1.8,2471.249,13.29,0.036,268.4
2022-04-20T05:43:03,42.805,6.029,-0.048,0.015,0.003,105.0,105.0,103.0,13.4,1505.2,326.3,-0.8,1.8,2471.325,13.29,0.05,287.4
2022-04-20T05:46:03,42.805,6.029,-0.048,0.012,0.01,104.0,104.0,101.0,13.4,1505.2,328.3,-0.8,1.9,2471.381,13.29,0.049,284.0
2022-04-20T05:49:03,42.805,6.029,-0.038,0.0,-0.018,105.0,103.0,103.0,13.4,1505.2,332.8,-0.7,1.8,2471.418,13.29,0.038,270.0
2022-04-20T05:52:03,42.805,6.029,-0.056,0.025,-0.003,104.0,102.0,101.0,13.4,1505.2,324.4,-0.8,1.8,2471.474,13.29,0.061,294.1
2022-04-20T05:55:03,42.805,6.029,-0.038,-0.003,-0.018,105.0,103.0,102.0,13.4,1505.2,327.5,-0.7,1.8,2471.499,13.29,0.038,265.5
2022-04-20T05:58:03,42.805,6.029,-0.041,0.003,-0.019,103.0,104.0,101.0,13.4,1505.2,326.3,-0.7,1.8,2471.485,13.29,0.041,274.2
2022-04-20T06:01:03,42.805,6.029,-0.043,0.003,-0.011,104.0,103.0,102.0,13.4,1505.2,322.7,-0.7,1.8,2471.472,13.29,0.043,274.0
2022-04-20T06:04:03,42.805,6.029,-0.056,0.021,0.011,105.0,103.0,102.0,13.4,1505.2,329.3,-0.8,1.8,2471.5,13.29,0.059,290.6
2022-04-20T06:07:03,42.805,6.029,-0.05,-0.004,-0.007,105.0,105.0,102.0,13.3,1505.2,325.8,-0.8,1.8,2471.504,13.29,0.05,265.4
2022-04-20T06:10:03,42.805,6.029,-0.049,0.01,-0.01,104.0,103.0,102.0,13.4,1505.2,330.7,-0.7,1.8,2471.576,13.29,0.05,281.5
2022-04-20T06:13:03,42.805,6.029,-0.034,0.005,-0.006,104.0,104.0,102.0,13.3,1505.2,325.5,-0.8,1.8,2471.662,13.29,0.034,278.4
2022-04-20T06:16:03,42.805,6.029,-0.036,-0.017,-0.048,104.0,104.0,103.0,13.4,1505.2,328.8,-0.8,1.8,2471.725,13.29,0.039,244.7
2022-04-20T06:19:03,42.805,6.029,-0.049,0.009,-0.029,104.0,104.0,102.0,13.3,1505.2,322.5,-0.7,1.8,2471.779,13.29,0.049,280.4
2022-04-20T06:22:03,42.805,6.029,-0.023,0.002,-0.016,105.0,104.0,102.0,13.4,1505.2,329.3,-0.7,1.8,2471.765,13.29,0.023,275.0
2022-04-20T06:25:03,42.805,6.029,-0.028,0.004,0.022,106.0,103.0,102.0,13.4,1505.2,327.7,-0.7,1.8,2471.811,13.29,0.028,278.1
2022-04-20T06:28:03,42.805,6.029,-0.057,-0.015,-0.002,106.0,105.0,103.0,13.4,1505.2,330.3,-0.8,1.8,2471.853,13.29,0.058,255.3
2022-04-20T06:31:03,42.805,6.029,-0.038,0.023,-0.055,105.0,104.0,103.0,13.3,1505.2,331.7,-0.7,1.8,2471.88,13.29,0.044,301.2
2022-04-20T06:34:03,42.805,6.029,-0.05,-0.008,-0.046,104.0,105.0,102.0,13.4,1505.2,329.5,-0.7,1.8,2471.858,13.29,0.05,260.9
2022-04-20T06:37:03,42.805,6.029,-0.015,0.021,0.026,104.0,104.0,103.0,13.3,1505.2,328.4,-0.7,1.8,2471.858,13.29,0.025,324.5
2022-04-20T06:40:03,42.805,6.029,-0.036,-0.007,-0.024,105.0,104.0,102.0,13.4,1505.2,324.9,-0.7,1.8,2471.905,13.29,0.036,259.0
2022-04-20T06:43:03,42.805,6.029,-0.033,-0.009,-0.021,104.0,106.0,104.0,13.3,1505.2,324.3,-0.8,1.8,2472.01,13.29,0.034,254.7
2022-04-20T06:46:03,42.805,6.029,-0.042,0.004,-0.029,107.0,104.0,102.0,13.3,1505.2,330.8,-0.7,1.8,2472.006,13.29,0.042,275.4
2022-04-20T06:49:03,42.805,6.029,-0.033,-0.01,-0.021,105.0,104.0,102.0,13.4,1505.2,323.1,-0.8,1.8,2472.016,13.29,0.034,253.1
2022-04-20T06:52:03,42.805,6.029,-0.044,-0.007,-0.008,104.0,103.0,103.0,13.4,1505.2,327.9,-0.8,1.8,2472.078,13.29,0.044,261.0
2022-04-20T06:55:03,42.805,6.029,-0.037,0.022,0.0,105.0,104.0,103.0,13.4,1505.2,331.1,-0.7,1.8,2472.064,13.29,0.043,300.7
2022-04-20T06:58:03,42.805,6.029,-0.055,0.006,-0.03,105.0,104.0,102.0,13.4,1505.2,331.9,-0.8,1.8,2472.062,13.29,0.055,276.2
2022-04-20T07:04:03,42.805,6.029,-0.039,0.006,-0.023,104.0,105.0,103.0,13.4,1505.2,331.5,-0.8,1.8,2472.005,13.28,0.039,278.7
2022-04-20T07:07:03,42.805,6.029,-0.041,0.015,-0.043,105.0,103.0,102.0,13.4,1505.2,326.2,-0.8,1.8,2472.093,13.28,0.043,290.1
2022-04-20T07:10:03,42.805,6.029,-0.043,-0.002,0.0,104.0,103.0,101.0,13.4,1505.2,324.4,-0.7,1.8,2472.117,13.28,0.043,267.3
2022-04-20T07:13:03,42.805,6.029,-0.025,-0.001,0.005,105.0,103.0,102.0,13.4,1505.2,328.5,-0.7,1.8,2472.174,13.28,0.025,267.7
2022-04-20T07:16:03,42.805,6.029,-0.013,0.0,0.01,105.0,104.0,101.0,13.3,1505.2,330.7,-0.8,1.8,2472.215,13.28,0.013,270.0
2022-04-20T07:19:03,42.805,6.029,-0.049,-0.006,-0.006,107.0,103.0,102.0,13.3,1505.2,324.0,-0.7,1.8,2472.207,13.28,0.049,263.0
2022-04-20T07:22:03,42.805,6.029,-0.043,0.0,-0.016,104.0,104.0,101.0,13.4,1505.2,324.5,-0.7,1.8,2472.207,13.29,0.043,270.0
2022-04-20T07:25:03,42.805,6.029,-0.043,0.014,0.009,104.0,105.0,103.0,13.3,1505.2,332.8,-0.7,1.8,2472.234,13.29,0.045,288.0
2022-04-20T07:28:03,42.805,6.029,-0.028,0.005,-0.012,104.0,105.0,101.0,13.4,1505.2,328.3,-0.8,1.8,2472.239,13.29,0.028,280.1
2022-04-20T07:31:03,42.805,6.029,-0.047,-0.003,-0.047,105.0,104.0,101.0,13.4,1505.2,331.8,-0.8,1.8,2472.249,13.29,0.047,266.4
2022-04-20T07:34:03,42.805,6.029,-0.033,0.001,-0.039,105.0,102.0,102.0,13.4,1505.2,328.4,-0.7,1.8,2472.272,13.29,0.033,271.7
2022-04-20T07:37:03,42.805,6.029,-0.038,-0.018,-0.028,103.0,105.0,102.0,13.4,1505.2,327.9,-0.8,1.9,2472.278,13.29,0.042,244.7
2022-04-20T07:40:03,42.805,6.029,-0.048,0.002,0.0,104.0,103.0,103.0,13.3,1505.2,330.0,-0.8,1.9,2472.265,13.29,0.048,272.4
2022-04-20T07:43:03,42.805,6.029,-0.024,0.001,-0.018,104.0,104.0,103.0,13.4,1505.2,332.1,-0.7,1.8,2472.257,13.29,0.024,272.4
2022-04-20T07:46:03,42.805,6.029,-0.019,-0.002,-0.019,104.0,102.0,101.0,13.4,1505.2,327.5,-0.8,1.8,2472.268,13.29,0.019,264.0
2022-04-20T07:49:03,42.805,6.029,-0.054,0.018,0.001,104.0,103.0,102.0,13.4,1505.2,331.9,-0.7,1.8,2472.258,13.29,0.056,288.4
2022-04-20T07:52:03,42.805,6.029,-0.044,0.022,-0.044,105.0,104.0,101.0,13.3,1505.2,330.6,-0.8,1.8,2472.281,13.29,0.049,296.6
2022-04-20T07:55:03,42.805,6.029,-0.034,0.009,-0.032,104.0,103.0,102.0,13.3,1505.2,327.9,-0.8,1.8,2472.3,13.29,0.035,284.8
2022-04-20T07:58:03,42.805,6.029,-0.041,-0.007,-0.029,103.0,103.0,101.0,13.4,1505.2,325.6,-0.8,1.8,2472.28,13.29,0.041,260.3
2022-04-20T08:04:03,42.805,6.029,-0.042,0.002,-0.014,105.0,104.0,103.0,13.4,1505.2,327.3,-0.8,1.8,2472.315,13.28,0.042,272.7
2022-04-20T08:07:03,42.805,6.029,-0.043,-0.017,-0.032,105.0,104.0,102.0,13.3,1505.2,322.3,-0.8,1.8,2472.324,13.28,0.046,248.4
2022-04-20T08:10:03,42.805,6.029,-0.013,0.002,-0.031,104.0,105.0,103.0,13.4,1505.2,327.4,-0.8,1.8,2472.298,13.28,0.013,278.7
2022-04-20T08:13:03,42.805,6.029,-0.022,-0.012,-0.036,103.0,104.0,101.0,13.3,1505.2,323.4,-0.7,1.8,2472.401,13.28,0.025,241.4
2022-04-20T08:16:03,42.805,6.029,-0.049,0.016,-0.007,104.0,104.0,102.0,13.3,1505.2,324.8,-0.7,1.8,2472.4,13.28,0.051,288.1
2022-04-20T08:19:03,42.805,6.029,-0.039,-0.025,-0.001,104.0,104.0,101.0,13.3,1505.2,323.5,-0.8,1.8,2472.496,13.28,0.046,237.3
2022-04-20T08:22:03,42.805,6.029,-0.058,-0.001,-0.046,104.0,104.0,102.0,13.4,1505.2,330.3,-0.8,1.8,2472.546,13.28,0.058,269.0
2022-04-20T08:25:03,42.805,6.029,-0.031,-0.013,-0.039,104.0,103.0,102.0,13.4,1505.2,327.0,-0.8,1.8,2472.53,13.28,0.033,247.3
2022-04-20T08:28:03,42.805,6.029,-0.025,0.002,-0.034,104.0,105.0,101.0,13.3,1505.2,325.2,-0.8,1.8,2472.53,13.28,0.025,274.6
2022-04-20T08:31:03,42.805,6.029,-0.029,0.016,-0.003,103.0,103.0,102.0,13.4,1505.2,331.0,-0.8,1.8,2472.547,13.28,0.033,298.9
2022-04-20T08:34:03,42.805,6.029,-0.042,-0.002,-0.005,104.0,104.0,103.0,13.4,1505.2,321.9,-0.7,1.8,2472.504,13.28,0.042,267.3
2022-04-20T08:37:03,42.805,6.029,-0.032,-0.007,0.003,104.0,103.0,102.0,13.4,1505.2,323.5,-0.7,1.8,2472.459,13.29,0.032,257.7
2022-04-20T08:40:03,42.805,6.029,-0.031,-0.014,-0.015,104.0,101.0,103.0,13.4,1505.2,328.5,-0.8,1.8,2472.477,13.28,0.034,245.7
2022-04-20T08:43:03,42.805,6.029,-0.027,-0.012,-0.035,104.0,102.0,101.0,13.4,1505.2,325.2,-0.8,1.8,2472.422,13.28,0.029,246.0
2022-04-20T08:46:03,42.805,6.029,-0.051,0.016,0.01,105.0,103.0,101.0,13.3,1505.2,325.7,-0.8,1.8,2472.394,13.29,0.053,287.4
2022-04-20T08:49:03,42.805,6.029,-0.024,-0.015,-0.02,104.0,103.0,102.0,13.3,1505.2,329.6,-0.8,1.8,2472.363,13.29,0.028,238.0
2022-04-20T08:52:03,42.805,6.029,-0.033,-0.004,0.005,103.0,105.0,102.0,13.4,1505.2,326.2,-0.8,1.8,2472.367,13.29,0.033,263.1
2022-04-20T08:55:03,42.805,6.029,-0.031,0.009,-0.024,106.0,103.0,102.0,13.4,1505.2,328.2,-0.8,1.8,2472.336,13.29,0.032,286.2
2022-04-20T08:58:03,42.805,6.029,-0.035,-0.004,-0.028,104.0,105.0,102.0,13.3,1505.2,324.1,-0.7,1.8,2472.314,13.28,0.035,263.5
2022-04-20T09:04:03,42.805,6.029,-0.034,-0.02,-0.025,104.0,104.0,103.0,13.4,1505.2,329.9,-0.8,1.8,2472.311,13.28,0.039,239.5
2022-04-20T09:07:03,42.805,6.029,-0.009,-0.015,-0.012,103.0,104.0,103.0,13.3,1505.2,330.4,-0.8,1.8,2472.285,13.28,0.017,211.0
2022-04-20T09:10:03,42.805,6.029,-0.026,-0.015,-0.032,106.0,104.0,102.0,13.4,1505.2,331.1,-0.8,1.8,2472.291,13.28,0.03,240.0
2022-04-20T09:13:03,42.805,6.029,-0.036,-0.003,0.016,103.0,104.0,102.0,13.4,1505.2,330.5,-0.8,1.8,2472.289,13.28,0.036,265.2
2022-04-20T09:16:03,42.805,6.029,-0.044,-0.007,-0.022,103.0,104.0,101.0,13.4,1505.2,326.0,-0.8,1.8,2472.263,13.28,0.044,261.0
2022-04-20T09:19:03,42.805,6.029,-0.036,-0.014,-0.029,104.0,103.0,102.0,13.4,1505.2,323.9,-0.8,1.8,2472.255,13.28,0.038,248.8
2022-04-20T09:22:03,42.805,6.029,-0.053,-0.007,-0.015,106.0,103.0,101.0,13.4,1505.2,323.8,-0.8,1.8,2472.233,13.28,0.053,262.5
2022-04-20T09:25:03,42.805,6.029,-0.028,-0.004,-0.038,103.0,104.0,102.0,13.4,1505.2,329.4,-0.7,1.8,2472.251,13.28,0.028,261.9
2022-04-20T09:28:03,42.805,6.029,-0.035,-0.008,0.001,104.0,103.0,102.0,13.4,1505.2,325.8,-0.8,1.8,2472.252,13.28,0.035,257.1
2022-04-20T09:31:03,42.805,6.029,-0.025,-0.001,-0.019,104.0,103.0,102.0,13.4,1505.2,324.9,-0.8,1.8,2472.14,13.28,0.025,267.7
2022-04-20T09:34:03,42.805,6.029,-0.041,-0.009,-0.045,105.0,103.0,101.0,13.3,1505.2,329.1,-0.7,1.8,2472.166,13.28,0.041,257.6
2022-04-20T09:37:03,42.805,6.029,-0.049,-0.009,-0.021,104.0,103.0,103.0,13.4,1505.2,322.6,-0.7,1.8,2472.18,13.28,0.049,259.6
2022-04-20T09:40:03,42.805,6.029,-0.024,-0.012,-0.001,104.0,104.0,101.0,13.3,1505.2,325.9,-0.8,1.8,2472.275,13.28,0.026,243.4
2022-04-20T09:43:03,42.805,6.029,-0.036,-0.012,0.002,103.0,104.0,102.0,13.4,1505.2,332.2,-0.7,1.8,2472.324,13.28,0.037,251.6
2022-04-20T09:46:03,42.805,6.029,-0.044,-0.018,-0.041,103.0,102.0,102.0,13.4,1505.2,325.4,-0.8,1.8,2472.306,13.28,0.047,247.8
2022-04-20T09:49:03,42.805,6.029,-0.033,-0.011,-0.037,104.0,103.0,102.0,13.4,1505.2,329.0,-0.7,1.8,2472.29,13.28,0.034,251.6